Powrót do katalogu

COSMOS 1339

AktywnyMilitariaPO
NORAD 13065·PAYLOAD·🇷🇺 Russia

Wystrzelony Feb 17, 1982 z Plesetsk Cosmodrome

Loading…

Następne Przeloty (najbliższe 24 godziny)

TLE

ŚwieżeSource: Space-Track

Epoka: Sep 14, 2026, 22:46 UTC

1 13065U 82012A   26257.94873322  .00000041  00000-0  27208-4 0  9996
2 13065  82.8958 252.4255 0041847 269.1053  90.5309 13.75789441236873

Śledź COSMOS 1339 w czasie rzeczywistym z AllMySat

Download on the App Store